{"data":{"norad_id":59900,"epoch":"2026-05-25T04:14:45.650400Z","epoch_age_seconds":66651,"freshness":"FRESH","line1":"1 59900U 24100R   26145.17691725  .00000371  00000+0  22999-4 0  9991","line2":"2 59900  43.0007  53.5221 0000842 264.0532  96.0224 15.27581666112748","mean_motion":15.27581666,"eccentricity":8.42e-5,"inclination_deg":43.0007,"raan_deg":53.5221,"arg_perigee_deg":264.0532,"mean_anomaly_deg":96.0224,"bstar":2.2999e-5,"rev_number":11274,"period_min":94.266645905136,"perigee_km":482.4663959916,"apogee_km":483.62181889009,"semimajor_km":6861.1811074408,"source":"CELESTRAK","updated_at":"2026-05-25T13:38:19.119383Z"}}